Location: Beccas
(43.4309°N, 0.1528°E)
Time: 10:34:54
(UTC+00:00)

SKYMED 2 - Pass Details

Date: 15 October 2021
Orbit: 621 x 623 km, 97.9° (Epoch: 07 December)

Event Time Altitude Azimuth Distance (km) Brightness Sun altitude
Rises 17:33:17 0° 21° (NNE) 2,915 6.7 -3.9°
Reaches altitude 10° 17:35:38 10° 29° (NNE) 2,003 5.8 -4.3°
Maximum altitude 17:39:40 37° 97° (E) 981 4.1 -5.1°
Drops below altitude 10° 17:43:41 10° 165° (SSE) 1,987 6.1 -5.8°
Sets 17:45:59 0° 174° (S) 2,888 7.0 -6.2°
